Skip Page Navigation
NASA JPL Caltech
NASA Logo - Jet Propulsion Laboratory + View the NASA Portal
+ Near-Earth Object (NEO) Program
Search JPL
JPL Home Earth Solar System Stars & Galaxies Technology
JPL Solar System Dynamics
BODIES ORBITS EPHEMERIDES TOOLS PHYSICAL DATA DISCOVERY FAQ SITE MAP
JPL Small-Body Database Browser
Search: [ help ]  
7326 Tedbunch (1981 UK22)
Classification: Main-belt Asteroid          SPK-ID: 2007326
Ephemeris | Orbit Diagram | Orbital Elements | Physical Parameters | Discovery Circumstances | Close-Approach Data ]

[ show orbit diagram ]
Orbital Elements at Epoch 2457600.5 (2016-Jul-31.0) TDB
Reference: JPL 13 (heliocentric ecliptic J2000)
 Element Value Uncertainty (1-sigma)   Units 
e .2095589697288586 5.0616e-08  
a 2.404822535399787 1.5774e-08 au
q 1.900870402500666 1.2164e-07 au
i 11.0060466977311 6.5289e-06 deg
node 206.9055890787152 2.8461e-05 deg
peri 142.9149692546901 3.2827e-05 deg
M 151.2101290774962 1.88e-05 deg
tp 2457028.361254049785
(2015-Jan-05.86125405)
6.7748e-05 JED
period 1362.143857681098
3.73
1.3402e-05
3.669e-08
d
yr
n .2642892657555721 2.6003e-09 deg/d
Q 2.908774668298908 1.9079e-08 au
  Orbit Determination Parameters
   # obs. used (total)      1002  
   data-arc span      12551 days (34.36 yr)  
   first obs. used      1981-10-24  
   last obs. used      2016-03-05  
   planetary ephem.      DE431  
   SB-pert. ephem.      SB431-BIG16  
   condition code      0  
   fit RMS      .55407  
   data source      ORB  
   producer      Otto Matic  
   solution date      2016-Mar-24 15:56:05  

Additional Information
 Earth MOID = .907659 au 
 Jupiter MOID = 2.58036 au 
 T_jup = 3.469 
[ show covariance matrix ]

Ephemeris | Orbit Diagram | Orbital Elements | Physical Parameters | Discovery Circumstances | Close-Approach Data ]

Physical Parameter Table
Parameter Symbol Value Units Sigma Reference Notes
absolute magnitude H 14.0 mag n/a PDS3 (MPC 28568)  

7326 Tedbunch           Discovered 1981 Oct. 24 by S. J. Bus at Palomar.
Theodore E. Bunch (b. 1936) is a meteoriticist at Northern Arizona University. He has used petrologic studies of a broad array of meteorites to understand the metamorphism and differentiation of minor planets and the moon.
NOTE: some special characters may not display properly (any characters within {} are an attempt to place the proper accent above a character)
Reference: 20060809/MPCPages.arcLast Updated: 2007-08-08

[ show close-approach data ]
Alternate Designations
 1981 UK22 = 1991 GQ5 = 1992 SW24 
Ephemeris | Orbit Diagram | Orbital Elements | Physical Parameters | Discovery Circumstances | Close-Approach Data ]
ABOUT SSD CREDITS/AWARDS PRIVACY/COPYRIGHT GLOSSARY LINKS
FirstGov 2016-Apr-30 11:15 UT
(server date/time)  
NASA Home Page
Site Manager:   Ryan S. Park
Webmaster  Alan B. Chamberlin